agen bola terpercaya
judi togel online

Jackpot

Texas Poker Multi Jackpot System

Kini Telah hadir Jackpot SUPER ROYAL FLUSH

Kini Telah hadir Jackpot 2000 (khusus table VIP keatas).

Ikutilah global jackpot yang tersedia di system kami, dengan system jackpot terbaru dan pertama di indonesia, anda dapat membeli jackpot dengan harga 100 rupiah saja dan menangkan hadiahnya hingga puluhan juta rupiah.

Jackpot bukanlah suatu keharusan untuk dibeli, namun kami memberikan suatu fitur tambahan untuk member tercinta dari www.audipoker.com.

Terdapat tiga pilihan harga jackpot yang bisa anda beli yaitu :100,500,1000 dan 2000(khusus table VIP Keatas) rupiah.

Hadiah dari Multi jackpot system www.audipoker.com

  1. full house x 10 harga jackpot yang anda beli.
      (contoh:anda membeli 1000 maka:1000 X10 = 10.000)
  2. four of kind x 250 harga jackpot yang anda beli
      (contoh:anda membeli 1000 maka:1000 X250 = 250.000)
  3. Straight flush x 1200
      (contoh:anda membeli 1000 maka:1000 X1200 = 1.200.000)
  4. Royal flush x 10000 harga jackpot yang anda beli
      (contoh:anda membeli 1000 maka:1000 X10000 = 10.000.000)
  5. SUPER ROYAL FLUSH x 30000 harga jackpot yang anda beli
      (contoh:anda membeli 1000 maka:1000 X30000 = 30.000.000)

Kondisi kartu

  1. full house adalah kondisi kartu dimana kartu anda dan kartu tengah dengan total 7 kartu bisa mendapatkan nilai 5 kartu dengan kombinasi 1 tris(three of kind) dan 1 pair, contoh 3 kartu 10 dan 2 kartu 5
  2. Four of kind adalah kondisi kartu dimana kartu anda dan kartu tengah dengan total 7 kartu bisa mendapatkan nilai 5 kartu dengan kombinasi 4 kartu yang sama jumlah dan 1 kartu apapun juga contoh anda mendapatkan 4 buah kartu angka 3 dan 1 kartu apapun.
  3. Staright flush adalah kondisi kartu dimana kartu anda dan kartu tengah dengan total 7 kartu bisa mendapatkan nilai 5 kartu dengan kombinasi seri / staright dengan kembang yang sama contoh : urutan kartu dari angka 5, 6, 7, 8 , 9 10 dengan kembang yg sama misalnya as hati
  4. Royal flush adalah kondisi kartu dimana kartu anda dan kartu tengah dengan total 7 kartu bisa mendapatkan nilai 5 kartu dengan kombinasi seri / staright dengan kembang yang sama tetapi kartu tersebut haruslah dimulai dari 10. contoh 10, Queen, Jack, King dan aces dengan kembang yang sama
  5. Super Royal flush adalah kondisi kartu dimana Kedua kartu anda digabung dengan 3 kartu pertama meja haruslah royal flush. contoh kartu anda 10,Queen kembang sama dan 3 kartu pertama meja adalah Jack, King dan aces dengan kembang yang sama

Demikian adalah penjelasan dari Multi Jackpot www.audipoker.com terima kasih dan selamat bermain salam hoki dari kami

Texas Poker Jackpot Winner

TOP SUPER ROYAL FLUSH
No.TanggalNamaPriceWin
127/04 02:14OB_EXSSuper Royal flush3,000,000
227/04 00:41CURUKUNGSuper Royal flush3,000,000
326/04 17:54OW1RC39EFQSuper Royal flush3,000,000
426/04 13:23USMANN98Super Royal flush15,000,000
526/04 01:26KODIM_07Super Royal flush15,000,000
TOP ROYAL FLUSH
No.TanggalNamaPriceWin
127/04 04:02AHOK7MNG2Royal flush5,000,000
227/04 03:24ATHIFAQRoyal flush10,000,000
327/04 03:22ANKBANDAR9Royal flush5,000,000
427/04 03:14DEXPOSESRoyal flush1,000,000
527/04 03:14JURAGAN88Royal flush1,000,000
TOP STRAIGHT FLUSH
No.TanggalNamaPriceWin
127/04 04:19BRAYY88899Straight Flush1,200,000
227/04 04:19ANKKYANKKAStraight Flush120,000
327/04 04:19D77R88Straight Flush120,000
427/04 04:19CHEBONK10Straight Flush600,000
527/04 04:19GILANG000Straight Flush1,200,000
LATEST JACKPOT
No.TanggalNamaPriceWin
127/04 04:20NAJHANFull House1,000
227/04 04:20BOBSABU02Four Of A Kind25,000
327/04 04:20NABI07Full House1,000
427/04 04:20ALIDAFull House1,000
527/04 04:20Q5II4UCXRWFull House1,000
627/04 04:20REREWOODFull House1,000
727/04 04:20DUIT1TRILIFull House1,000
827/04 04:20ONNIXXFull House5,000
927/04 04:20FIRDAUS78Full House5,000
1027/04 04:20BMZ88Full House10,000
1127/04 04:20ALLWAYS01Full House5,000
1227/04 04:20JACP0T88Full House10,000
1327/04 04:20MIKAWANFull House5,000
1427/04 04:20BUNGSU02Full House5,000
1527/04 04:20BISAAJA0Full House5,000
1627/04 04:20ISMULADIFull House5,000
1727/04 04:20C7CDC5FDFull House10,000
1827/04 04:20RAVI2008Full House5,000
1927/04 04:20BUYA_PPISFull House5,000
2027/04 04:20DAMOS77Full House5,000
2127/04 04:20WALET338Full House5,000
2227/04 04:20NABIL66Four Of A Kind250,000
2327/04 04:19BRAYY88899Straight Flush1,200,000
2427/04 04:19ANKKYANKKAStraight Flush120,000
2527/04 04:19BIONDA88Full House10,000
2627/04 04:19UNIQQFull House10,000
2727/04 04:19D77R88Straight Flush120,000
2827/04 04:19UMAR007Full House5,000
2927/04 04:19ONION28Full House1,000
3027/04 04:19KEVIFull House10,000
3127/04 04:19F3A095B4Full House1,000
3227/04 04:19LEONESFour Of A Kind250,000
3327/04 04:19PAS1001Four Of A Kind250,000
3427/04 04:19SIPIYUNG9Full House1,000
3527/04 04:19BOGELEUYFull House1,000
3627/04 04:19MICHAEL444Full House10,000
3727/04 04:19CHEBONK10Straight Flush600,000
3827/04 04:19WANIAN89Full House5,000
3927/04 04:19A8B57535Full House1,000
4027/04 04:19GILANG000Straight Flush1,200,000
4127/04 04:19TERLEPASFull House10,000
4227/04 04:19B7BE5A30Full House1,000
4327/04 04:19MANDOWN1Full House10,000
4427/04 04:19GOBLIN222Full House10,000
4527/04 04:19GARCIA2Four Of A Kind250,000
4627/04 04:19B72C1EA7Full House5,000
4727/04 04:19SUKATISAFull House10,000
4827/04 04:19LB80EF7NS0Full House10,000
4927/04 04:19PANDU_WDFull House1,000
5027/04 04:19MIKAWANFull House5,000

Domino Multi Jackpot System

Ikutilah global jackpot yang tersedia di system kami, dengan system jackpot terbaru dan pertama di indonesia, anda dapat membeli jackpot dengan harga 100 rupiah saja dan menangkan hadiahnya hingga puluhan juta rupiah.

Jackpot bukanlah suatu keharusan untuk dibeli, namun kami memberikan suatu fitur tambahan untuk member tercinta dari www.audipoker.com.

Terdapat tiga pilihan harga jackpot yang bisa anda beli yaitu :100,500 dan 1000 rupiah.

Hadiah dari Multi jackpot system www.audipoker.com

  1. Murni Kecil x 50 harga jackpot yang anda beli.
      (contoh:anda membeli 1000 maka:1000 X 50 = 50.000)
  2. Murni Besar x 50 harga jackpot yang anda beli
      (contoh:anda membeli 1000 maka:1000 X 50 = 50.000)
  3. BALAK x 100 harga jackpot yang anda beli
      (contoh:anda membeli 1000 maka:1000 X 100 = 100.000)
  4. ENAM DEWA x 6666 harga jackpot yang anda beli
      (contoh:anda membeli 1000 maka:1000 X 6666 = 6.666.000)

Demikian adalah penjelasan dari Multi Jackpot www.audipoker.com terima kasih dan selamat bermain salam hoki dari kami

Domino Jackpot Winner

TOP ENAM DEWA
No.TanggalNamaPriceWin
126/04 23:57B4L4KT1G4murni enam6,666,000
226/04 23:07BEDULCAYmurni enam6,666,000
326/04 22:03ALADIN0000murni enam3,333,000
426/04 21:38DM82997murni enam666,600
526/04 21:22DIOK99murni enam666,600
TOP BALAK
No.TanggalNamaPriceWin
127/04 04:18RANN89balak100,000
227/04 04:17AMBROZIIbalak100,000
327/04 04:15QQRIAN89balak100,000
427/04 04:12N6ZCRBK3MYbalak50,000
527/04 04:07TEMPEKTUObalak50,000
LATEST JACKPOT
No.TanggalNamaPriceWin
127/04 04:19ARY78murni besar50,000
227/04 04:19NDSARE81murni besar5,000
327/04 04:18RANN89balak100,000
427/04 04:18MYIRWANmurni kecil25,000
527/04 04:17AMBROZIIbalak100,000
627/04 04:15QQRIAN89balak100,000
727/04 04:13LITLE_KRISmurni besar50,000
827/04 04:12N6ZCRBK3MYbalak50,000
927/04 04:11DARAZADA3murni besar25,000
1027/04 04:11OZBORN03murni kecil50,000
1127/04 04:10AMANG18murni kecil25,000
1227/04 04:08ARI305murni besar50,000
1327/04 04:07TEMPEKTUObalak50,000
1427/04 04:06UC1L900murni kecil5,000
1527/04 04:06LITLE_KRISmurni kecil50,000
1627/04 04:05SOZAmurni besar50,000
1727/04 04:04UC1L900murni kecil5,000
1827/04 04:03MAJESTY186balak100,000
1927/04 04:02TEBA81murni besar50,000
2027/04 04:01MYIRWANmurni kecil25,000
2127/04 04:00IRYZUVG6ISbalak50,000
2227/04 04:00SUGABQUINmurni kecil25,000
2327/04 04:00AILIALmurni kecil25,000
2427/04 04:00YULIALATASmurni besar5,000
2527/04 04:00KOWDOKmurni kecil50,000
2627/04 04:00GIBLATmurni kecil50,000
2727/04 04:00H4CKERSmurni besar25,000
2827/04 03:59SOZAmurni kecil50,000
2927/04 03:57KOALEX74murni kecil50,000
3027/04 03:57JULGLKmurni kecil25,000
3127/04 03:57YULIALATASmurni besar5,000
3227/04 03:57MANUAL123murni kecil25,000
3327/04 03:56L2IQJOKmurni kecil50,000
3427/04 03:56UMATAMKECIbalak10,000
3527/04 03:56IPAHSARIPAmurni kecil25,000
3627/04 03:55POKER_COMbalak50,000
3727/04 03:53SUGABQUINmurni kecil25,000
3827/04 03:52J3RIB3Tmurni kecil50,000
3927/04 03:52NDSARE81murni besar5,000
4027/04 03:51ARI305murni kecil50,000
4127/04 03:50SUDIANNURmurni kecil50,000
4227/04 03:49BBAMMBANbalak10,000
4327/04 03:49KAJAGOmurni besar25,000
4427/04 03:49BAPA66murni kecil50,000
4527/04 03:48YOVIKORImurni kecil25,000
4627/04 03:48DINO770murni besar50,000
4727/04 03:48OBOT44murni besar25,000
4827/04 03:47N6ZCRBK3MYmurni besar25,000
4927/04 03:47JULGLKmurni kecil25,000
5027/04 03:46CEMPE69murni besar50,000

Ceme Multi Jackpot System

Jackpot dilihat dari gabungan kartu pemain dengan kartu bandar. Bandar harus membeli jackpot sebanyak jumlah player yang sedang duduk. Sebagai contoh bila terdapat 3 pemain duduk bermain, dan bandar memutuskan untuk membeli jackpot Rp 1.000, maka pada periode tersebut bandar akan membeli jackpot sebanyak 3xRp1.000 = Rp3.000.

Jackpot bukanlah suatu keharusan untuk dibeli, namun kami memberikan suatu fitur tambahan untuk member tercinta dari www.audipoker.com.

Terdapat tiga pilihan harga jackpot yang bisa anda beli yaitu :100,500 dan 1000 rupiah.

Hadiah dari Multi jackpot system www.audipoker.com

  1. Murni Kecil x 50 harga jackpot yang anda beli.
      (contoh:anda membeli 1000 maka:1000 X 50 = 50.000)
  2. Murni Besar x 50 harga jackpot yang anda beli
      (contoh:anda membeli 1000 maka:1000 X 50 = 50.000)
  3. BALAK x 200 harga jackpot yang anda beli
      (contoh:anda membeli 1000 maka:1000 X 200 = 200.000)
  4. ENAM DEWA x 6666 harga jackpot yang anda beli
      (contoh:anda membeli 1000 maka:1000 X 6666 = 6.666.000)

Demikian adalah penjelasan dari Multi Jackpot www.audipoker.com terima kasih dan selamat bermain salam hoki dari kami

Ceme Jackpot Winner

TOP ENAM DEWA
No.TanggalNamaPriceWin
127/04 04:06RANDI098murni enam6,666,000
227/04 03:40AAAXXXSSSmurni enam3,333,000
327/04 03:40B16ASmurni enam666,600
427/04 03:39JIMY1murni enam666,600
527/04 03:18DARUEL12murni enam666,600
TOP BALAK
No.TanggalNamaPriceWin
127/04 04:19HOKAY707balak200,000
227/04 04:19FEBRI208balak200,000
327/04 04:17WINSFUCKbalak200,000
427/04 04:17JANFRICO22balak20,000
527/04 04:15OLANFIANbalak100,000
LATEST JACKPOT
No.TanggalNamaPriceWin
127/04 04:20USMAN007murni kecil50,000
227/04 04:20RIELKHO17murni kecil50,000
327/04 04:20JEY1NZXEMCmurni kecil5,000
427/04 04:20AAAXXXSSSmurni kecil25,000
527/04 04:20MENARSANGmurni kecil25,000
627/04 04:20DAYAT101murni kecil25,000
727/04 04:20K0YRDCT4N3murni kecil25,000
827/04 04:19W4R90murni besar5,000
927/04 04:19HOKAY707balak200,000
1027/04 04:19ASEP557murni besar5,000
1127/04 04:19NJOPIEmurni kecil5,000
1227/04 04:19FEBRI208murni kecil50,000
1327/04 04:19BAGA12murni kecil5,000
1427/04 04:19FEBRI208balak200,000
1527/04 04:18DANA337murni kecil25,000
1627/04 04:18AHAHAE88murni kecil50,000
1727/04 04:17JPFFP2WVBVmurni besar50,000
1827/04 04:17KARI0murni besar5,000
1927/04 04:17QIU_QIU999murni besar50,000
2027/04 04:17WINSFUCKbalak200,000
2127/04 04:17NAKARAmurni besar50,000
2227/04 04:17OCHID77murni besar25,000
2327/04 04:17JANFRICO22balak20,000
2427/04 04:16TAKOYAKI14murni kecil25,000
2527/04 04:16DOMINIBETmurni kecil50,000
2627/04 04:16NICEFORO97murni kecil25,000
2727/04 04:16DOMINIBETmurni kecil50,000
2827/04 04:16JEMBUT999murni kecil50,000
2927/04 04:16ASUBEDJOmurni kecil50,000
3027/04 04:15A5HOKImurni kecil50,000
3127/04 04:15KINANG88murni kecil5,000
3227/04 04:15OLANFIANbalak100,000
3327/04 04:15BC8C126Fbalak200,000
3427/04 04:15MASJUREKmurni besar50,000
3527/04 04:15T0RAYAmurni besar25,000
3627/04 04:15DIBA87balak200,000
3727/04 04:15CANGLEE8balak200,000
3827/04 04:15DIBA87murni besar50,000
3927/04 04:15JOE1982murni besar5,000
4027/04 04:15SETIO00balak100,000
4127/04 04:15YEQIUmurni besar50,000
4227/04 04:15ACUY65murni kecil5,000
4327/04 04:15Y4NTOKmurni besar25,000
4427/04 04:14LABU32murni kecil50,000
4527/04 04:14RONAYCREWmurni kecil5,000
4627/04 04:13BADUTDAYmurni kecil25,000
4727/04 04:13JPFFP2WVBVmurni kecil50,000
4827/04 04:13KARI0murni kecil5,000
4927/04 04:13NAPOLEON15balak200,000
5027/04 04:12LABU32murni kecil50,000